Weather History for Kimball, NE

Change the Weather History Date:

Thursday, May 3, 2012

  Actual Average (KSNY) Record (KSNY)
Temperature  
Mean Temperature 58 °F 54 °F  
Max Temperature 75 °F 68 °F 91 °F (1949)
Min Temperature 41 °F 39 °F 19 °F (2013)
Degree Days  
Heating Degree Days 7 12  
Month to date heating degree days 36  
Since 1 July heating degree days 5948  
Cooling Degree Days 0 0  
Month to date cooling degree days 0  
Year to date cooling degree days 1  
Growing Degree Days 8 (Base 50)    
Moisture  
Dew Point 40 °F    
Average Humidity 53    
Maximum Humidity 85    
Minimum Humidity 22    
Precipitation  
Precipitation 0.00 in 0.10 in 0.52 in (2007)
Month to date precipitation 0.30  
Year to date precipitation 3.97  
Sea Level Pressure  
Sea Level Pressure 29.91 in    
Wind  
Wind Speed 10 mph (SSW)    
Max Wind Speed 30 mph    
Max Gust Speed 36 mph    
Visibility 10 miles    
Events      
T = Trace of Precipitation, MM = Missing Value Source: NWS Daily Summary

Daily Weather History Graph

Daily Weather History Graph

Search for Another Location

Airport:

Trip Planner

Search our weather history database for the weather conditions in past years. The results will help you decide how hot, cold, wet, or windy it might be!

Date:

Astronomy

May. 03, 2012 Rise Set
Actual Time 6:49 AM CDT 8:54 PM CDT
Civil Twilight 6:18 AM CDT 9:24 PM CDT
Nautical Twilight 5:41 AM CDT 10:02 PM CDT
Astronomical Twilight 5:01 AM CDT 10:42 PM CDT
Moon 6:20 PM CDT (5/3) 4:56 AM CDT (5/3)
Length of Visible Light 15h 05m
Length of Day
14h 05m
Waxing Gibbous, 91% of the Moon is Illuminated
May 3
Waxing Gibbous
May 5
Full
May 12
Last Quarter
May 20
New
May 28
First Quarter

Hourly Weather History & Observations

Time (CDT) Temp. Windchill Dew Point Humidity Pressure Visibility Wind Dir Wind Speed Gust Speed Precip Events Conditions
12:15 AM 52.3 °F - 45.7 °F 78% 29.89 in 10.0 mi WSW 5.8 mph - N/A   Mostly Cloudy
12:35 AM 52.0 °F - 46.0 °F 80% 29.89 in 10.0 mi SSW 8.1 mph - N/A   Scattered Clouds
12:55 AM 51.4 °F - 45.9 °F 81% 29.90 in 10.0 mi SW 6.9 mph - N/A   Clear
1:15 AM 50.4 °F - 45.7 °F 84% 29.89 in 10.0 mi SW 6.9 mph - N/A   Clear
1:35 AM 50.5 °F - 43.9 °F 78% 29.89 in 10.0 mi WSW 8.1 mph - N/A   Clear
1:55 AM 50.0 °F - 43.0 °F 77% 29.89 in 10.0 mi West 8.1 mph - N/A   Clear
2:15 AM 49.1 °F - 43.0 °F 79% 29.89 in 10.0 mi West 8.1 mph - N/A   Clear
2:35 AM 47.7 °F - 42.8 °F 83% 29.89 in 10.0 mi West 6.9 mph - N/A   Clear
2:55 AM 47.7 °F - 41.9 °F 80% 29.89 in 10.0 mi West 9.2 mph - N/A   Clear
3:15 AM 50.0 °F - 41.0 °F 71% 29.89 in 10.0 mi West 10.4 mph - N/A   Clear
3:35 AM 50.2 °F - 40.5 °F 69% 29.89 in 10.0 mi West 9.2 mph - N/A   Clear
3:55 AM 49.8 °F - 40.1 °F 69% 29.89 in 10.0 mi West 9.2 mph - N/A   Clear
4:15 AM 49.6 °F - 39.7 °F 69% 29.90 in 10.0 mi NW 9.2 mph - N/A   Clear
4:35 AM 47.7 °F - 40.1 °F 75% 29.91 in 10.0 mi NW 10.4 mph - N/A   Clear
4:55 AM 46.8 °F - 39.6 °F 76% 29.91 in 10.0 mi WNW 8.1 mph - N/A   Clear
5:15 AM 45.7 °F 42.0 °F 39.2 °F 78% 29.91 in 10.0 mi WNW 6.9 mph - N/A   Clear
5:35 AM 43.9 °F 40.5 °F 38.7 °F 82% 29.92 in 10.0 mi WNW 5.8 mph - N/A   Clear
5:55 AM 42.8 °F 38.6 °F 37.9 °F 83% 29.92 in 10.0 mi WNW 6.9 mph - N/A   Clear
6:15 AM 41.7 °F 36.7 °F 37.6 °F 85% 29.92 in 10.0 mi West 8.1 mph - N/A   Clear
6:35 AM 43.3 °F 37.7 °F 37.8 °F 81% 29.92 in 10.0 mi West 10.4 mph - N/A   Clear
6:55 AM 42.3 °F 36.8 °F 37.4 °F 83% 29.94 in 10.0 mi WNW 9.2 mph - N/A   Clear
7:15 AM 43.2 °F 39.7 °F 37.6 °F 81% 29.95 in 10.0 mi NW 5.8 mph - N/A   Clear
7:35 AM 43.0 °F 39.5 °F 37.9 °F 82% 29.95 in 10.0 mi WNW 5.8 mph - N/A   Clear
7:55 AM 44.8 °F 41.0 °F 38.7 °F 79% 29.96 in 10.0 mi WNW 6.9 mph - N/A   Clear
8:15 AM 46.8 °F - 38.8 °F 74% 29.97 in 10.0 mi NW 8.1 mph - N/A   Clear
8:35 AM 48.4 °F - 39.0 °F 70% 29.98 in 10.0 mi NW 8.1 mph - N/A   Clear
8:55 AM 49.3 °F - 39.6 °F 69% 29.98 in 10.0 mi NNW 8.1 mph - N/A   Clear
9:15 AM 50.7 °F - 41.2 °F 70% 30.00 in 10.0 mi NNE 9.2 mph - N/A   Clear
9:35 AM 51.1 °F - 41.5 °F 70% 30.00 in 10.0 mi North 6.9 mph - N/A   Clear
9:55 AM 52.5 °F - 42.6 °F 69% 30.01 in 10.0 mi NNW 4.6 mph - N/A   Clear
10:15 AM 54.1 °F - 42.6 °F 65% 30.00 in 10.0 mi North 3.5 mph - N/A   Clear
10:35 AM 56.3 °F - 42.6 °F 60% 30.00 in 10.0 mi North 4.6 mph - N/A   Clear
10:55 AM 57.4 °F - 41.7 °F 56% 30.00 in 10.0 mi Calm Calm - N/A   Clear
11:15 AM 58.6 °F - 42.3 °F 55% 30.00 in 10.0 mi NE 5.8 mph - N/A   Clear
11:35 AM 60.8 °F - 43.0 °F 52% 29.99 in 10.0 mi North 4.6 mph - N/A   Clear
11:55 AM 62.2 °F - 41.4 °F 46% 29.99 in 10.0 mi Calm Calm - N/A   Clear
12:15 PM 64.2 °F - 41.5 °F 44% 29.99 in 10.0 mi East 5.8 mph - N/A   Clear
12:35 PM 64.9 °F - 39.9 °F 40% 29.98 in 10.0 mi East 6.9 mph - N/A   Clear
12:55 PM 66.9 °F - 39.6 °F 37% 29.97 in 10.0 mi ENE 3.5 mph - N/A   Clear
1:15 PM 68.4 °F - 38.8 °F 34% 29.97 in 10.0 mi SSE 9.2 mph - N/A   Clear
1:35 PM 69.3 °F - 37.9 °F 32% 29.96 in 10.0 mi SSE 10.4 mph 16.1 mph N/A   Clear
1:55 PM 70.3 °F - 39.2 °F 32% 29.94 in 10.0 mi SSE 8.1 mph 17.3 mph N/A   Clear
2:15 PM 71.2 °F - 37.9 °F 30% 29.94 in 10.0 mi SE 9.2 mph 18.4 mph N/A   Clear
2:35 PM 71.8 °F - 38.5 °F 30% 29.94 in 10.0 mi SSE 13.8 mph 23.0 mph N/A   Clear
3:15 PM 72.9 °F - 37.8 °F 28% 29.91 in 10.0 mi SSE 17.3 mph 24.2 mph N/A   Clear
3:35 PM 73.8 °F - 37.0 °F 26% 29.91 in 10.0 mi SSE 18.4 mph 24.2 mph N/A   Clear
3:55 PM 74.3 °F - 37.6 °F 26% 29.90 in 10.0 mi SE 18.4 mph 23.0 mph N/A   Clear
4:15 PM 75.0 °F - 36.9 °F 25% 29.89 in 10.0 mi SSE 21.9 mph 26.5 mph N/A   Clear
4:35 PM 74.5 °F - 35.6 °F 24% 29.89 in 10.0 mi SSE 21.9 mph 26.5 mph N/A   Clear
4:55 PM 75.4 °F - 36.5 °F 24% 29.88 in 10.0 mi SE 19.6 mph 25.3 mph N/A   Clear
5:15 PM 75.9 °F - 36.0 °F 23% 29.87 in 10.0 mi SSE 18.4 mph 35.7 mph N/A   Clear
5:35 PM 75.6 °F - 36.1 °F 24% 29.86 in 10.0 mi SSE 16.1 mph 29.9 mph N/A   Clear
5:55 PM 75.7 °F - 35.2 °F 23% 29.85 in 10.0 mi SE 23.0 mph 28.8 mph N/A   Clear
6:15 PM 75.6 °F - 34.3 °F 22% 29.85 in 10.0 mi SE 21.9 mph 31.1 mph N/A   Clear
6:35 PM 74.7 °F - 33.8 °F 22% 29.85 in 10.0 mi SSE 20.7 mph - N/A   Clear
6:55 PM 73.9 °F - 34.0 °F 23% 29.85 in 10.0 mi SSE 19.6 mph 28.8 mph N/A   Clear
7:15 PM 73.6 °F - 34.9 °F 24% 29.85 in 10.0 mi SE 20.7 mph 25.3 mph N/A   Clear
7:35 PM 72.7 °F - 35.2 °F 25% 29.85 in 10.0 mi SSE 17.3 mph 26.5 mph N/A   Clear
7:55 PM 71.2 °F - 36.9 °F 28% 29.85 in 10.0 mi SE 16.1 mph - N/A   Clear
8:15 PM 69.1 °F - 37.8 °F 32% 29.85 in 10.0 mi SE 15.0 mph - N/A   Clear
8:35 PM 67.3 °F - 38.5 °F 35% 29.85 in 10.0 mi SE 12.7 mph - N/A   Clear
8:55 PM 65.3 °F - 39.4 °F 39% 29.86 in 10.0 mi SE 12.7 mph - N/A   Clear
9:15 PM 64.4 °F - 39.6 °F 40% 29.86 in 10.0 mi SE 15.0 mph - N/A   Clear
9:35 PM 62.8 °F - 39.7 °F 43% 29.86 in 10.0 mi SSE 13.8 mph - N/A   Clear
9:55 PM 62.8 °F - 38.8 °F 41% 29.87 in 10.0 mi SSE 13.8 mph - N/A   Clear
10:15 PM 62.2 °F - 39.2 °F 43% 29.88 in 10.0 mi South 17.3 mph 26.5 mph N/A   Clear
10:35 PM 63.5 °F - 41.5 °F 45% 29.88 in 10.0 mi SSE 29.9 mph 35.7 mph N/A   Clear
10:55 PM 62.1 °F - 41.2 °F 46% 29.87 in 10.0 mi SSE 20.7 mph - N/A   Clear
11:15 PM 62.2 °F - 42.3 °F 48% 29.87 in 10.0 mi SSE 21.9 mph 27.6 mph N/A   Clear
11:35 PM 62.6 °F - 41.7 °F 46% 29.86 in 10.0 mi SSE 21.9 mph 28.8 mph N/A   Clear
11:55 PM 61.9 °F - 42.8 °F 50% 29.86 in 10.0 mi SSE 16.1 mph - N/A   Clear